PRAHALIBU Weather Reports


Display with metric or nautical units.
time (UTC)temp
F
wind
direction
speed
MPH
gust
MPH
rain 1hr
in
rain 24hr
in
rain mn
in
humidity
%
barometer
mb
20260507081835 57 260 7.0 0.0 0.00 0.00 0.00 67
20260507071836 59 230 9.0 0.0 0.00 0.00 0.00 72
20260507061835 55 240 7.0 0.0 0.00 0.00 0.00 82
20260507051834 54 220 5.0 0.0 0.00 0.00 0.00 87
20260507042040 50 200 2.0 0.0 0.00 0.00 0.00 93
20260507031836 50 190 2.0 0.0 0.00 0.00 0.00 93
20260507021833 52 250 5.0 0.0 0.00 0.00 0.00 93
20260507011935 54 230 5.0 0.0 0.00 0.00 0.00 93
20260507001835 54 230 5.0 0.0 0.00 0.00 0.00 93
20260506231837 55 220 2.0 0.0 0.00 0.00 0.00 93
20260506222037 57 110 5.0 0.0 0.00 0.00 0.00 87
20260506211835 55 120 5.0 0.0 0.00 0.00 0.00 93
20260506201852 59 60 7.0 0.0 0.00 0.00 0.00 82
20260506191956 59 310 2.0 0.0 0.00 0.00 0.00 82
20260506181924 61 80 5.0 0.0 0.00 0.00 0.00 77
20260506171835 61 80 7.0 0.0 0.00 0.00 0.00 67
20260506162038 61 0 5.0 0.0 0.00 0.00 0.00 77
20260506151851 64 310 9.0 0.0 0.00 0.00 0.00 59
20260506141851 70 340 2.0 0.0 0.00 0.00 0.00 43
20260506131851 68 320 5.0 0.0 0.00 0.00 0.00 49
20260506121851 70 170 5.0 0.0 0.00 0.00 0.00 52
20260506111837 68 0 5.0 0.0 0.00 0.00 0.00 52
20260506102038 66 260 5.0 0.0 0.00 0.00 0.00 55
20260506091837 63 0 5.0 0.0 0.00 0.00 0.00 63